TimeCST,TemperatureF,Dew PointF,Humidity,Sea Level PressureIn,VisibilityMPH,Wind Direction,Wind SpeedMPH,Gust SpeedMPH,PrecipitationIn,Events,Conditions,WindDirDegrees,DateUTC
12:15 AM,24.3,21.4,89,30.20,10.0,West,5.8,-,N/A,,Clear,280,2013-12-17 06:15:00
12:35 AM,22.1,19.0,88,30.19,10.0,West,4.6,-,N/A,,Clear,280,2013-12-17 06:35:00
12:55 AM,21.0,18.5,90,30.18,10.0,West,5.8,-,N/A,,Clear,270,2013-12-17 06:55:00
1:15 AM,21.2,18.9,91,30.18,10.0,West,6.9,-,N/A,,Clear,280,2013-12-17 07:15:00
1:35 AM,22.1,19.9,91,30.19,10.0,WNW,8.1,-,N/A,,Clear,290,2013-12-17 07:35:00
1:55 AM,23.0,20.5,90,30.19,10.0,WNW,8.1,-,N/A,,Clear,300,2013-12-17 07:55:00
2:15 AM,22.5,20.1,91,30.19,10.0,WNW,6.9,-,N/A,,Clear,300,2013-12-17 08:15:00
2:35 AM,20.3,18.1,91,30.19,10.0,WNW,5.8,-,N/A,,Clear,290,2013-12-17 08:35:00
2:55 AM,22.5,20.3,91,30.20,10.0,WNW,8.1,-,N/A,,Clear,300,2013-12-17 08:55:00
3:15 AM,22.6,20.1,90,30.21,10.0,West,4.6,-,N/A,,Clear,280,2013-12-17 09:15:00
3:35 AM,22.1,19.9,91,30.21,10.0,WNW,8.1,-,N/A,,Clear,300,2013-12-17 09:35:00
3:55 AM,22.3,19.8,90,30.21,10.0,WNW,9.2,-,N/A,,Clear,300,2013-12-17 09:55:00
4:15 AM,21.7,19.6,91,30.21,10.0,WNW,8.1,-,N/A,,Clear,300,2013-12-17 10:15:00
4:35 AM,24.1,21.7,91,30.21,10.0,NW,9.2,-,N/A,,Clear,310,2013-12-17 10:35:00
4:55 AM,25.9,22.1,86,30.22,10.0,WNW,9.2,-,N/A,,Clear,300,2013-12-17 10:55:00
5:15 AM,25.7,21.6,84,30.23,10.0,WNW,9.2,-,N/A,,Clear,290,2013-12-17 11:15:00
5:35 AM,25.7,21.9,86,30.24,10.0,WNW,13.8,-,N/A,,Clear,290,2013-12-17 11:35:00
5:55 AM,26.6,21.9,82,30.24,10.0,WNW,11.5,-,N/A,,Clear,290,2013-12-17 11:55:00
6:15 AM,24.8,20.7,84,30.24,10.0,WNW,10.4,-,N/A,,Clear,290,2013-12-17 12:15:00
6:35 AM,24.3,20.7,86,30.25,10.0,WNW,9.2,-,N/A,,Clear,290,2013-12-17 12:35:00
6:55 AM,24.3,20.7,86,30.27,10.0,WNW,9.2,-,N/A,,Clear,290,2013-12-17 12:55:00
7:15 AM,23.2,20.3,89,30.27,10.0,WNW,9.2,-,N/A,,Clear,300,2013-12-17 13:15:00
7:35 AM,23.4,20.1,87,30.28,10.0,WNW,8.1,-,N/A,,Clear,290,2013-12-17 13:35:00
7:55 AM,22.1,19.0,88,30.29,10.0,WNW,6.9,-,N/A,,Clear,290,2013-12-17 13:55:00
8:15 AM,21.2,18.3,89,30.31,10.0,WNW,5.8,-,N/A,,Clear,290,2013-12-17 14:15:00
8:35 AM,22.8,19.4,87,30.31,10.0,West,5.8,-,N/A,,Clear,280,2013-12-17 14:35:00
8:55 AM,25.5,22.1,87,30.32,10.0,West,6.9,-,N/A,,Clear,280,2013-12-17 14:55:00
9:15 AM,29.1,24.4,83,30.33,10.0,West,6.9,-,N/A,,Clear,280,2013-12-17 15:15:00
9:35 AM,32.4,26.6,79,30.33,10.0,West,5.8,-,N/A,,Clear,280,2013-12-17 15:35:00
9:55 AM,34.0,26.8,75,30.33,10.0,West,5.8,-,N/A,,Clear,270,2013-12-17 15:55:00
10:15 AM,35.4,27.0,71,30.32,10.0,WNW,5.8,-,N/A,,Clear,300,2013-12-17 16:15:00
10:35 AM,37.8,27.0,65,30.33,10.0,NW,5.8,-,N/A,,Clear,310,2013-12-17 16:35:00
10:55 AM,40.3,27.3,60,30.33,10.0,West,4.6,-,N/A,,Clear,280,2013-12-17 16:55:00
11:15 AM,42.3,27.3,56,30.33,10.0,West,8.1,-,N/A,,Clear,270,2013-12-17 17:15:00
11:35 AM,42.8,26.4,52,30.33,10.0,West,8.1,-,N/A,,Clear,280,2013-12-17 17:35:00
11:55 AM,45.3,21.4,39,30.32,10.0,NNW,10.4,-,N/A,,Clear,330,2013-12-17 17:55:00
12:15 PM,45.7,20.7,37,30.30,10.0,North,6.9,-,N/A,,Clear,350,2013-12-17 18:15:00
12:35 PM,45.7,20.1,36,30.29,10.0,NW,4.6,-,N/A,,Clear,310,2013-12-17 18:35:00
12:55 PM,47.1,20.1,34,30.27,10.0,NNW,3.5,-,N/A,,Clear,340,2013-12-17 18:55:00
1:15 PM,46.6,20.3,35,30.26,10.0,WNW,4.6,-,N/A,,Clear,290,2013-12-17 19:15:00
1:35 PM,47.5,21.0,35,30.26,10.0,WSW,4.6,-,N/A,,Clear,250,2013-12-17 19:35:00
1:55 PM,47.5,21.2,35,30.25,10.0,West,8.1,-,N/A,,Clear,260,2013-12-17 19:55:00
2:15 PM,47.7,22.6,37,30.24,10.0,WSW,4.6,-,N/A,,Clear,250,2013-12-17 20:15:00
2:35 PM,47.5,23.5,39,30.22,10.0,SW,8.1,-,N/A,,Clear,220,2013-12-17 20:35:00
2:55 PM,47.7,23.0,38,30.21,10.0,SSW,8.1,-,N/A,,Clear,210,2013-12-17 20:55:00
3:15 PM,48.6,22.5,36,30.21,10.0,SSW,8.1,-,N/A,,Clear,210,2013-12-17 21:15:00
3:35 PM,48.9,22.3,35,30.21,10.0,SSW,9.2,-,N/A,,Clear,200,2013-12-17 21:35:00
3:55 PM,48.4,22.8,37,30.21,10.0,SW,10.4,-,N/A,,Clear,220,2013-12-17 21:55:00
4:15 PM,47.5,23.4,39,30.20,10.0,SSW,10.4,-,N/A,,Clear,210,2013-12-17 22:15:00
4:35 PM,46.2,23.7,41,30.19,10.0,SSW,6.9,-,N/A,,Clear,200,2013-12-17 22:35:00
4:55 PM,42.3,23.4,47,30.18,10.0,South,6.9,-,N/A,,Clear,190,2013-12-17 22:55:00
5:15 PM,37.9,22.8,55,30.17,10.0,South,8.1,-,N/A,,Clear,170,2013-12-17 23:15:00
5:35 PM,35.8,22.8,59,30.16,10.0,South,8.1,-,N/A,,Clear,170,2013-12-17 23:35:00
5:55 PM,32.9,22.1,65,30.15,5.0,South,8.1,-,N/A,,Haze,170,2013-12-17 23:55:00
6:15 PM,34.5,23.0,63,30.14,10.0,South,8.1,-,N/A,,Clear,170,2013-12-18 00:15:00
6:35 PM,32.2,22.6,68,30.13,10.0,South,9.2,-,N/A,,Clear,170,2013-12-18 00:35:00
6:55 PM,33.8,23.4,66,30.12,10.0,SSE,6.9,-,N/A,,Clear,150,2013-12-18 00:55:00
7:15 PM,35.1,23.7,63,30.12,10.0,SSE,9.2,-,N/A,,Clear,150,2013-12-18 01:15:00
7:35 PM,36.0,23.2,60,30.11,10.0,SSE,8.1,-,N/A,,Clear,150,2013-12-18 01:35:00
7:55 PM,36.3,23.4,59,30.10,10.0,SSE,8.1,-,N/A,,Clear,160,2013-12-18 01:55:00
8:15 PM,39.0,23.5,54,30.09,10.0,South,12.7,17.3,N/A,,Clear,180,2013-12-18 02:15:00
8:35 PM,39.2,23.5,53,30.08,10.0,South,8.1,-,N/A,,Clear,180,2013-12-18 02:35:00
8:55 PM,39.2,23.4,53,30.06,10.0,South,12.7,-,N/A,,Clear,190,2013-12-18 02:55:00
9:15 PM,39.2,23.4,53,30.05,10.0,South,15.0,21.9,N/A,,Clear,190,2013-12-18 03:15:00
9:35 PM,38.3,23.4,55,30.05,10.0,South,11.5,18.4,N/A,,Clear,190,2013-12-18 03:35:00
9:55 PM,38.5,23.2,54,30.05,10.0,South,9.2,-,N/A,,Clear,190,2013-12-18 03:55:00
10:15 PM,38.3,23.0,54,30.04,10.0,SSW,8.1,-,N/A,,Clear,200,2013-12-18 04:15:00
10:35 PM,41.0,22.6,48,30.03,10.0,SSW,15.0,21.9,N/A,,Clear,210,2013-12-18 04:35:00
10:55 PM,40.8,22.1,47,30.02,10.0,SSW,15.0,20.7,N/A,,Clear,210,2013-12-18 04:55:00
11:15 PM,41.4,21.9,46,30.02,10.0,SW,18.4,-,N/A,,Clear,220,2013-12-18 05:15:00
11:35 PM,39.9,21.7,48,30.01,10.0,SW,11.5,-,N/A,,Clear,220,2013-12-18 05:35:00
11:55 PM,38.8,21.0,49,30.02,10.0,Calm,Calm,-,N/A,,Clear,0,2013-12-18 05:55:00